Notices

What's New in latest Release from April 7th, 2021:

- Updated Glossary, including Speed of Maximum Gust, and Total Hourly Precipitation

- Updated national and regional climate services offices contacts and prices information

- Addition of station inventory lists for 1981-2010, 1971-2000, and 1961-1990 Normals.

If you haven't already, please take our survey and provide feedback about our website: https://eccc.sondage-survey.ca/f/LanguageSelection.aspx?s=442ca660-fcf1-47c0-95a9-59707d6fd709

Hourly Data Report for March 07, 2020

MIRAMICHI RCS
NEW BRUNSWICK
Current Station Operator: ECCC - MSC

47°00'34.000" N
65°27'54.000" W
33.00 m
8100989
71744
ACQ

Download Data

Hourly Data (March 2020)
Hourly Data Report for March 7, 2020
TIME
LST
Temp Definition
°C
Dew Point Definition
°C
Rel Hum Definition
%
Precip. Amount Definition
mm

Wind Dir Definition
10's deg

Wind Spd Definition
km/h
Visibility Definition
km
Stn Press Definition
kPa
Hmdx Definition


Wind Chill Definition


Weather Definition


00:00 -8.5 -13.8 66 LegendMM 4 5   101.75   -11 LegendNANA
01:00 -9.5 -14.5 67 LegendMM 3 6   101.82   -13 LegendNANA
02:00 -9.2 -14.8 64 LegendMM 36 7   101.77   -13 LegendNANA
03:00 -9.0 -14.7 63 LegendMM 1 10   101.66   -14 LegendNANA
04:00 -9.3 -15.0 63 LegendMM 1 10   101.54   -14 LegendNANA
05:00 -9.9 -15.2 65 LegendMM 1 5   101.56   -13 LegendNANA
06:00 -10.3 -15.6 65 LegendMM 2 9   101.51   -15 LegendNANA
07:00 -10.7 -15.6 67 LegendMM 1 8   101.50   -15 LegendNANA
08:00 -10.1 -15.4 65 LegendMM 2 11   101.53   -16 LegendNANA
09:00 -8.3 -14.8 59 LegendMM 2 18   101.50   -15 LegendNANA
10:00 -7.2 -14.5 56 LegendMM 3 23   101.50   -15 LegendNANA
11:00 -5.7 -13.9 52 LegendMM 2 18   101.52   -12 LegendNANA
12:00 -4.6 -13.3 50 LegendMM 1 18   101.38   -11 LegendNANA
13:00 -3.4 -12.6 49 LegendMM 1 19   101.33   -9 LegendNANA
14:00 -2.3 -12.0 47 LegendMM 1 21   101.28   -8 LegendNANA
15:00 -1.4 -11.9 44 LegendMM 2 19   101.24   -7 LegendNANA
16:00 -0.9 -11.4 45 LegendMM 1 14   101.23   -5 LegendNANA
17:00 -1.2 -12.1 43 LegendMM 36 12   101.26   -5 LegendNANA
18:00 -1.9 -12.5 44 LegendMM 1 11   101.31   -6 LegendNANA
19:00 -3.0 -12.8 47 LegendMM 35 6   101.33   -5 LegendNANA
20:00 -4.1 -13.4 49 LegendMM 33 5   101.35   -6 LegendNANA
21:00 -5.0 -13.5 52 LegendMM 34 6   101.40   -8 LegendNANA
22:00 -5.9 -12.2 61 LegendMM 32 12   101.43   -11 LegendNANA
23:00 -6.9 -13.8 58 LegendMM 31 10   101.41   -12 LegendNANA

Notes on Data Quality.

Legend

  • E = Estimated
  • M = Missing
  • NA = Not Available*
  • [empty] = Indicates an unobserved value
Date modified: